Regional Weather Roundup
Issued by NWS

Home | Current Version | Previous Version | Graphics & Text | Print | Product List | Glossary On
Versions: 1 2 3 4 5 6 7 8 9 10 11 12 13 14 15 16 17 18 19 20 21 22 23 24 25 26 27 28 29 30 31 32 33 34 35 36 37 38 39 40 41 42 43 44 45 46 47 48 49 50
000
ASUS43 KBIS 260302
RWRND

NORTH DAKOTA REGIONAL WEATHER ROUNDUP
NATIONAL WEATHER SERVICE BISMARCK ND
1000 PM CDT SAT MAR 25 2017

NOTE: "FAIR" INDICATES FEW OR NO CLOUDS BELOW 12,000 FEET WITH NO
SIGNIFICANT WEATHER AND/OR OBSTRUCTIONS TO VISIBILITY.


NDZ001>003-009>011-017-260400-
NORTHWEST NORTH DAKOTA

CITY           SKY/WX    TMP DP  RH WIND       PRES   REMARKS
WILLISTON      FAIR      49  31  49 CALM      29.88R
MINOT          CLOUDY    48  35  60 S8        29.89R
MINOT AFB      CLOUDY    42  36  78 S5        29.88R
$$

NDZ018>021-031>035-040>046-260400-
SOUTHWEST NORTH DAKOTA

CITY           SKY/WX    TMP DP  RH WIND       PRES   REMARKS
BISMARCK       CLOUDY    46  35  65 SE7       29.93R
DICKINSON      CLOUDY    49  27  42 N8        29.88R
GARRISON         N/A     40  33  76 SE3       29.90S
HETTINGER ARPT CLOUDY    48  34  58 SE6       29.90R
$$

NDZ004>008-012>016-024-026-027-054-260400-
NORTHEAST NORTH DAKOTA

CITY           SKY/WX    TMP DP  RH WIND       PRES   REMARKS
GRAND FORKS    PTCLDY    33  33 100 S6        30.01F
GRND FRKS AFB  CLOUDY    33  33  98 S6        30.01S
DEVILS LAKE    FAIR      35  33  92 S10       29.96S
$$

NDZ022-023-025-028>030-036>039-047>053-260400-
SOUTHEAST NORTH DAKOTA

CITY           SKY/WX    TMP DP  RH WIND       PRES   REMARKS
FARGO          CLOUDY    33  30  88 CALM      30.03S
JAMESTOWN      FAIR      33  31  92 SE13      29.96F
$$





USA.gov is the U.S. government's official web portal to all federal, state and local government web resources and services.